Time,TemperatureF,DewpointF,PressureIn,WindDirection,WindDirectionDegrees,WindSpeedMPH,WindSpeedGustMPH,Humidity,HourlyPrecipIn,Conditions,Clouds,dailyrainin,SoftwareType,DateUTC
2013-09-07 00:12:00,59.0,58.0,-100.00,East,90,1.0,3.0,95,-99.99,,,-99.99,,2013-09-07 07:12:00,
2013-09-07 00:42:00,59.0,57.0,-100.00,SE,135,1.0,3.0,95,-99.99,,,-99.99,,2013-09-07 07:42:00,
2013-09-07 00:52:00,59.0,57.0,-100.00,SE,135,1.0,2.0,95,-99.99,,,-99.99,,2013-09-07 07:52:00,
2013-09-07 01:02:00,59.0,57.0,-100.00,SE,135,1.0,2.0,95,-99.99,,,-99.99,,2013-09-07 08:02:00,
2013-09-07 01:12:00,59.0,57.0,-100.00,SE,135,1.0,2.0,95,-99.99,,,-99.99,,2013-09-07 08:12:00,
2013-09-07 01:22:00,58.0,57.0,-100.00,SE,135,1.0,2.0,96,-99.99,,,-99.99,,2013-09-07 08:22:00,
2013-09-07 01:43:00,58.0,57.0,-100.00,East,90,1.0,2.0,97,-99.99,,,-99.99,,2013-09-07 08:43:00,
2013-09-07 01:53:00,57.0,57.0,-100.00,East,90,1.0,3.0,97,-99.99,,,-99.99,,2013-09-07 08:53:00,
2013-09-07 02:12:00,57.0,56.0,-100.00,East,90,1.0,3.0,97,-99.99,,,-99.99,,2013-09-07 09:12:00,
2013-09-07 02:21:00,57.0,56.0,-100.00,East,90,1.0,2.0,97,-99.99,,,-99.99,,2013-09-07 09:21:00,
2013-09-07 02:42:00,57.0,56.0,-100.00,East,90,2.0,3.0,97,-99.99,,,-99.99,,2013-09-07 09:42:00,
2013-09-07 02:52:00,57.0,56.0,-100.00,South,180,0.0,2.0,98,-99.99,,,-99.99,,2013-09-07 09:52:00,
2013-09-07 03:11:00,57.0,56.0,-100.00,East,90,1.0,1.0,98,-99.99,,,-99.99,,2013-09-07 10:11:00,
2013-09-07 03:21:00,56.0,56.0,-100.00,East,90,2.0,3.0,98,-99.99,,,-99.99,,2013-09-07 10:21:00,
2013-09-07 03:41:00,57.0,56.0,-100.00,NE,45,0.0,2.0,98,-99.99,,,-99.99,,2013-09-07 10:41:00,
2013-09-07 03:51:00,57.0,56.0,-100.00,East,90,1.0,1.0,98,-99.99,,,-99.99,,2013-09-07 10:51:00,
2013-09-07 04:13:00,57.0,56.0,-100.00,East,90,1.0,2.0,98,-99.99,,,-99.99,,2013-09-07 11:13:00,
2013-09-07 04:23:00,57.0,57.0,-100.00,East,90,1.0,2.0,99,-99.99,,,-99.99,,2013-09-07 11:23:00,
2013-09-07 04:43:00,56.0,56.0,-100.00,East,90,1.0,3.0,99,-99.99,,,-99.99,,2013-09-07 11:43:00,
2013-09-07 04:52:00,56.0,56.0,-100.00,SE,135,0.0,1.0,99,-99.99,,,-99.99,,2013-09-07 11:52:00,
2013-09-07 05:22:00,56.0,56.0,-100.00,SE,135,1.0,2.0,99,-99.99,,,-99.99,,2013-09-07 12:22:00,
2013-09-07 05:42:00,56.0,56.0,-100.00,East,90,0.0,4.0,99,-99.99,,,-99.99,,2013-09-07 12:42:00,
2013-09-07 05:52:00,56.0,56.0,-100.00,NE,45,0.0,2.0,99,-99.99,,,-99.99,,2013-09-07 12:52:00,
2013-09-07 06:11:00,56.0,56.0,-100.00,NE,45,0.0,3.0,99,-99.99,,,-99.99,,2013-09-07 13:11:00,
2013-09-07 06:21:00,57.0,56.0,-100.00,North,0,1.0,1.0,99,-99.99,,,-99.99,,2013-09-07 13:21:00,
2013-09-07 06:42:00,57.0,56.0,-100.00,NW,315,0.0,1.0,98,-99.99,,,-99.99,,2013-09-07 13:42:00,
2013-09-07 06:52:00,57.0,57.0,-100.00,NE,45,1.0,2.0,98,-99.99,,,-99.99,,2013-09-07 13:52:00,
2013-09-07 07:11:00,58.0,57.0,-100.00,SE,135,0.0,3.0,98,-99.99,,,-99.99,,2013-09-07 14:11:00,
2013-09-07 07:22:00,58.0,57.0,-100.00,NW,315,1.0,3.0,97,-99.99,,,-99.99,,2013-09-07 14:22:00,
2013-09-07 07:42:00,58.0,57.0,-100.00,SE,135,1.0,3.0,96,-99.99,,,-99.99,,2013-09-07 14:42:00,
2013-09-07 07:52:00,58.0,56.0,-100.00,North,0,1.0,4.0,94,-99.99,,,-99.99,,2013-09-07 14:52:00,
2013-09-07 08:11:00,59.0,56.0,-100.00,NW,315,0.0,4.0,93,-99.99,,,-99.99,,2013-09-07 15:11:00,
2013-09-07 08:22:00,59.0,56.0,-100.00,East,90,2.0,5.0,92,-99.99,,,-99.99,,2013-09-07 15:22:00,
2013-09-07 08:44:00,59.0,56.0,-100.00,NE,45,2.0,4.0,91,-99.99,,,-99.99,,2013-09-07 15:44:00,
2013-09-07 08:54:00,59.0,56.0,-100.00,NW,315,2.0,6.0,89,-99.99,,,-99.99,,2013-09-07 15:54:00,
2013-09-07 09:12:00,60.0,56.0,-100.00,North,0,1.0,4.0,87,-99.99,,,-99.99,,2013-09-07 16:12:00,
2013-09-07 09:24:00,61.0,56.0,-100.00,South,180,2.0,4.0,85,-99.99,,,-99.99,,2013-09-07 16:24:00,
2013-09-07 09:43:00,61.0,56.0,-100.00,North,0,1.0,6.0,83,-99.99,,,-99.99,,2013-09-07 16:43:00,
2013-09-07 09:53:00,62.0,56.0,-100.00,East,90,1.0,6.0,80,-99.99,,,-99.99,,2013-09-07 16:53:00,
2013-09-07 10:12:00,63.0,56.0,-100.00,NE,45,2.0,7.0,78,-99.99,,,-99.99,,2013-09-07 17:12:00,
2013-09-07 10:24:00,65.0,56.0,-100.00,NE,45,2.0,6.0,74,-99.99,,,-99.99,,2013-09-07 17:24:00,
2013-09-07 10:43:00,66.0,57.0,-100.00,North,0,1.0,3.0,73,-99.99,,,-99.99,,2013-09-07 17:43:00,
2013-09-07 10:52:00,65.0,57.0,-100.00,NW,315,2.0,5.0,73,-99.99,,,-99.99,,2013-09-07 17:52:00,
2013-09-07 11:13:00,68.0,57.0,-100.00,North,0,3.0,5.0,70,-99.99,,,-99.99,,2013-09-07 18:13:00,
2013-09-07 11:22:00,67.0,57.0,-100.00,NW,315,3.0,8.0,71,-99.99,,,-99.99,,2013-09-07 18:22:00,
2013-09-07 11:43:00,68.0,58.0,-100.00,SE,135,3.0,7.0,68,-99.99,,,-99.99,,2013-09-07 18:43:00,
2013-09-07 11:52:00,69.0,57.0,-100.00,South,180,2.0,5.0,65,-99.99,,,-99.99,,2013-09-07 18:52:00,
2013-09-07 12:11:00,71.0,56.0,-100.00,NW,315,4.0,10.0,60,-99.99,,,-99.99,,2013-09-07 19:11:00,
2013-09-07 12:22:00,72.0,58.0,-100.00,SW,225,2.0,7.0,61,-99.99,,,-99.99,,2013-09-07 19:22:00,
2013-09-07 12:42:00,74.0,57.0,-100.00,North,0,1.0,7.0,55,-99.99,,,-99.99,,2013-09-07 19:42:00,
2013-09-07 12:52:00,74.0,56.0,-100.00,NE,45,1.0,11.0,54,-99.99,,,-99.99,,2013-09-07 19:52:00,
2013-09-07 13:11:00,74.0,56.0,-100.00,NE,45,2.0,11.0,53,-99.99,,,-99.99,,2013-09-07 20:11:00,
2013-09-07 13:22:00,75.0,57.0,-100.00,East,90,5.0,11.0,53,-99.99,,,-99.99,,2013-09-07 20:22:00,
2013-09-07 13:42:00,76.0,56.0,-100.00,East,90,4.0,10.0,51,-99.99,,,-99.99,,2013-09-07 20:42:00,
2013-09-07 13:53:00,77.0,55.0,-100.00,East,90,3.0,10.0,47,-99.99,,,-99.99,,2013-09-07 20:53:00,
2013-09-07 14:12:00,77.0,56.0,-100.00,NW,315,2.0,6.0,47,-99.99,,,-99.99,,2013-09-07 21:12:00,
2013-09-07 14:22:00,77.0,56.0,-100.00,North,0,3.0,8.0,48,-99.99,,,-99.99,,2013-09-07 21:22:00,
2013-09-07 14:44:00,78.0,56.0,-100.00,NW,315,4.0,7.0,46,-99.99,,,-99.99,,2013-09-07 21:44:00,
2013-09-07 14:54:00,78.0,54.0,-100.00,NW,315,4.0,9.0,43,-99.99,,,-99.99,,2013-09-07 21:54:00,
2013-09-07 15:13:00,80.0,54.0,-100.00,North,0,2.0,8.0,41,-99.99,,,-99.99,,2013-09-07 22:13:00,
2013-09-07 15:43:00,80.0,54.0,-100.00,NW,315,3.0,7.0,41,-99.99,,,-99.99,,2013-09-07 22:43:00,
2013-09-07 15:53:00,79.0,55.0,-100.00,NW,315,4.0,8.0,43,-99.99,,,-99.99,,2013-09-07 22:53:00,
2013-09-07 16:12:00,80.0,55.0,-100.00,NE,45,3.0,7.0,42,-99.99,,,-99.99,,2013-09-07 23:12:00,
2013-09-07 16:23:00,80.0,55.0,-100.00,North,0,3.0,6.0,42,-99.99,,,-99.99,,2013-09-07 23:23:00,
2013-09-07 16:42:00,82.0,54.0,-100.00,NE,45,2.0,6.0,39,-99.99,,,-99.99,,2013-09-07 23:42:00,
2013-09-07 16:53:00,82.0,55.0,-100.00,SW,225,1.0,3.0,39,-99.99,,,-99.99,,2013-09-07 23:53:00,
2013-09-07 17:11:00,82.0,56.0,-100.00,North,0,1.0,4.0,41,-99.99,,,-99.99,,2013-09-08 00:11:00,
2013-09-07 17:22:00,82.0,54.0,-100.00,East,90,2.0,6.0,38,-99.99,,,-99.99,,2013-09-08 00:22:00,
2013-09-07 17:42:00,81.0,55.0,-100.00,NW,315,3.0,4.0,41,-99.99,,,-99.99,,2013-09-08 00:42:00,
2013-09-07 17:52:00,80.0,55.0,-100.00,SW,225,1.0,4.0,42,-99.99,,,-99.99,,2013-09-08 00:52:00,
2013-09-07 18:11:00,79.0,59.0,-100.00,South,180,4.0,9.0,50,-99.99,,,-99.99,,2013-09-08 01:11:00,
2013-09-07 18:22:00,78.0,59.0,-100.00,South,180,4.0,9.0,52,-99.99,,,-99.99,,2013-09-08 01:22:00,
2013-09-07 18:42:00,78.0,59.0,-100.00,SW,225,3.0,8.0,52,-99.99,,,-99.99,,2013-09-08 01:42:00,
2013-09-07 18:52:00,77.0,61.0,-100.00,SW,225,4.0,9.0,57,-99.99,,,-99.99,,2013-09-08 01:52:00,
2013-09-07 19:11:00,77.0,62.0,-100.00,SW,225,3.0,9.0,60,-99.99,,,-99.99,,2013-09-08 02:11:00,
2013-09-07 19:22:00,77.0,62.0,-100.00,South,180,3.0,8.0,61,-99.99,,,-99.99,,2013-09-08 02:22:00,
2013-09-07 19:43:00,76.0,62.0,-100.00,SW,225,2.0,8.0,62,-99.99,,,-99.99,,2013-09-08 02:43:00,
2013-09-07 19:52:00,75.0,62.0,-100.00,South,180,2.0,6.0,65,-99.99,,,-99.99,,2013-09-08 02:52:00,
2013-09-07 20:12:00,73.0,64.0,-100.00,NE,45,2.0,3.0,72,-99.99,,,-99.99,,2013-09-08 03:12:00,
2013-09-07 20:22:00,71.0,62.0,-100.00,South,180,1.0,4.0,75,-99.99,,,-99.99,,2013-09-08 03:22:00,
2013-09-07 20:44:00,69.0,62.0,-100.00,East,90,3.0,4.0,77,-99.99,,,-99.99,,2013-09-08 03:44:00,
2013-09-07 20:54:00,68.0,61.0,-100.00,East,90,3.0,4.0,79,-99.99,,,-99.99,,2013-09-08 03:54:00,
2013-09-07 21:02:00,-999.0,-99.9,-100.00,East,90,1.0,3.0,-999,-99.99,,,-99.99,,2013-09-08 04:02:00,
2013-09-07 21:14:00,68.0,61.0,-100.00,East,90,1.0,3.0,79,-99.99,,,-99.99,,2013-09-08 04:14:00,
2013-09-07 21:24:00,68.0,61.0,-100.00,East,90,1.0,3.0,81,-99.99,,,-99.99,,2013-09-08 04:24:00,
2013-09-07 21:43:00,67.0,62.0,-100.00,East,90,1.0,3.0,83,-99.99,,,-99.99,,2013-09-08 04:43:00,
2013-09-07 21:54:00,67.0,62.0,-100.00,East,90,3.0,4.0,84,-99.99,,,-99.99,,2013-09-08 04:54:00,
2013-09-07 22:12:00,66.0,61.0,-100.00,East,90,2.0,3.0,84,-99.99,,,-99.99,,2013-09-08 05:12:00,
2013-09-07 22:23:00,66.0,62.0,-100.00,NE,45,0.0,3.0,85,-99.99,,,-99.99,,2013-09-08 05:23:00,
2013-09-07 22:43:00,65.0,62.0,-100.00,SE,135,1.0,1.0,87,-99.99,,,-99.99,,2013-09-08 05:43:00,
2013-09-07 22:52:00,66.0,62.0,-100.00,SE,135,1.0,3.0,87,-99.99,,,-99.99,,2013-09-08 05:52:00,
2013-09-07 23:13:00,65.0,61.0,-100.00,SE,135,1.0,2.0,88,-99.99,,,-99.99,,2013-09-08 06:13:00,
2013-09-07 23:21:00,65.0,61.0,-100.00,SE,135,1.0,1.0,89,-99.99,,,-99.99,,2013-09-08 06:21:00,
2013-09-07 23:42:00,64.0,61.0,-100.00,East,90,1.0,2.0,91,-99.99,,,-99.99,,2013-09-08 06:42:00,
2013-09-07 23:53:00,64.0,61.0,-100.00,SE,135,1.0,3.0,92,-99.99,,,-99.99,,2013-09-08 06:53:00,